sat.trackr.live / text

‹ back to catalog

KUIPER-00086

NORAD 64832 · 2025-151S

PAYLOAD ACTIVE UNKNOWN

§ Identity

Operator
Country
US
Launch date
2025-07-16
Launch site
AFETR
Launch vehicle
Mass (kg)
RCS (m²)

External: N2YO · Heavens-Above · Gunter

§ Orbital elements

Epoch: 2026-05-24T21:39:50.096160Z

Period
97.30 min
Inclination
51.9014°
Eccentricity
0.0000767
Mean motion
14.79932197 rev/d
Perigee alt
629.0 km
Apogee alt
630.1 km
Semi-major
7,007.7 km
B*
4.0205e-5
RAAN
321.0923°
Arg perigee
129.0229°
Mean anomaly
231.0802°
Rev number
4,662

§ Raw data

KUIPER-000861 64832U 25151S   26144.90266315  .00000085  00000+0  40205-4 0  99932 64832  51.9014 321.0923 0000767 129.0229 231.0802 14.79932197 46626

JSON: /api/v1/satellites/64832 · /tle

For live sub-satellite position, see the globe view (requires WebGL).

§ Visibility from observer

Set your observer location to see the next 7 days of passes ≥ 10°. The values pass through the URL so the page stays shareable.

No JS? Fill the form by hand. The geolocation button needs JavaScript.